Caldwell, ID

7:22 AM MST on December 12, 2017 (GMT -0700)
Caldwell Industrial

Weather History for KEUL - October, 2012

Change the Weather History Date:

Friday, October 12, 2012

  Actual Average (KBOI) Record (KBOI)
Temperature  
Mean Temperature 55 °F -  
Max Temperature 75 °F 65 °F 82 °F (1944)
Min Temperature 35 °F 40 °F 25 °F (1891)
Degree Days  
Heating Degree Days 10    
Growing Degree Days 5 (Base 50)    
Moisture  
Dew Point 31 °F    
Average Humidity 46    
Maximum Humidity 70    
Minimum Humidity 19    
Precipitation  
Precipitation 0.00 in - - ()
Sea Level Pressure  
Sea Level Pressure 29.86 in    
Wind  
Wind Speed 2 mph (North)    
Max Wind Speed 14 mph    
Max Gust Speed -    
Visibility 10 miles    
Events      
Averages and records for this station are not official NWS values.
T = Trace of Precipitation, MM = Missing Value Source: NWS Daily Summary

Daily Weather History Graph

Daily Weather History Graph

Search for Another Location

Airport or City:

Trip Planner

Search our weather history database for the weather conditions in past years. The results will help you decide how hot, cold, wet, or windy it might be!

Date:

Astronomy

Oct. 12, 2012 Rise Set
Actual Time 7:57 AM MDT 7:07 PM MDT
Civil Twilight 7:28 AM MDT 7:36 PM MDT
Nautical Twilight 6:55 AM MDT 8:09 PM MDT
Astronomical Twilight 6:22 AM MDT 8:42 PM MDT
Moon 4:40 AM MDT 5:23 PM MDT
Length of Visible Light 12h 07m
Length of Day
11h 09m
Waning Crescent, 10% of the Moon is Illuminated
Oct 12
Waning Crescent
Oct 15
New
Oct 21
First Quarter
Oct 29
Full
Nov 6
Last Quarter

Hourly Weather History & Observations

Time (MDT) Temp. Windchill Dew Point Humidity Pressure Visibility Wind Dir Wind Speed Gust Speed Precip Events Conditions
12:15 AM 44.6 °F - 28.4 °F 53% 29.85 in 10.0 mi Calm Calm - N/A   Clear
12:35 AM 44.6 °F - 28.4 °F 53% 29.85 in 10.0 mi Calm Calm - N/A   Clear
12:55 AM 42.8 °F - 26.6 °F 53% 29.85 in 10.0 mi Calm Calm - N/A   Clear
1:15 AM 44.6 °F - 30.2 °F 57% 29.85 in 10.0 mi Calm Calm - N/A   Clear
1:35 AM 42.8 °F 41.1 °F 28.4 °F 57% 29.85 in 10.0 mi ENE 3.5 mph - N/A   Clear
1:55 AM 41.0 °F 37.1 °F 28.4 °F 61% 29.85 in 10.0 mi ENE 5.8 mph - N/A   Clear
2:35 AM 41.0 °F 39.0 °F 30.2 °F 65% 29.85 in 10.0 mi ENE 3.5 mph - N/A   Clear
2:55 AM 39.2 °F 37.0 °F 28.4 °F 65% 29.85 in 10.0 mi ENE 3.5 mph - N/A   Clear
3:15 AM 39.2 °F - 30.2 °F 70% 29.85 in 10.0 mi Calm Calm - N/A   Clear
3:35 AM 41.0 °F 38.0 °F 30.2 °F 65% 29.86 in 10.0 mi SSW 4.6 mph - N/A   Clear
3:55 AM 42.8 °F - 30.2 °F 61% 29.86 in 10.0 mi Calm Calm - N/A   Clear
4:15 AM 42.8 °F 41.1 °F 30.2 °F 61% 29.86 in 10.0 mi SSW 3.5 mph - N/A   Clear
4:55 AM 37.4 °F 34.9 °F 28.4 °F 70% 29.86 in 10.0 mi East 3.5 mph - N/A   Clear
5:15 AM 37.4 °F 33.8 °F 26.6 °F 65% 29.86 in 10.0 mi ENE 4.6 mph - N/A   Clear
5:35 AM 37.4 °F 34.9 °F 26.6 °F 65% 29.87 in 10.0 mi ENE 3.5 mph - N/A   Clear
6:15 AM 37.4 °F - 24.8 °F 60% 29.86 in 10.0 mi Calm Calm - N/A   Clear
6:35 AM 35.6 °F 32.8 °F 26.6 °F 70% 29.86 in 10.0 mi East 3.5 mph - N/A   Clear
7:15 AM 35.6 °F - 26.6 °F 70% 29.86 in 10.0 mi Calm Calm - N/A   Clear
7:35 AM 35.6 °F 32.8 °F 26.6 °F 70% 29.87 in 10.0 mi East 3.5 mph - N/A   Clear
8:15 AM 37.4 °F - 28.4 °F 70% 29.87 in 10.0 mi Calm Calm - N/A   Clear
8:35 AM 37.4 °F - 26.6 °F 65% 29.88 in 8.0 mi Calm Calm - N/A   Clear
8:55 AM 39.2 °F - 28.4 °F 65% 29.88 in 3.0 mi Calm Calm - N/A   Clear
9:15 AM 39.2 °F - 28.4 °F 65% 29.89 in 10.0 mi Calm Calm - N/A   Clear
9:55 AM 46.4 °F - 32.0 °F 57% 29.90 in 10.0 mi Calm Calm - N/A   Clear
10:15 AM 48.2 °F - 33.8 °F 58% 29.90 in 10.0 mi Calm Calm - N/A   Clear
10:35 AM 51.8 °F - 35.6 °F 54% 29.90 in 10.0 mi Calm Calm - N/A   Clear
10:55 AM 53.6 °F - 35.6 °F 51% 29.90 in 10.0 mi Calm Calm - N/A   Clear
11:35 AM 57.2 °F - 35.6 °F 44% 29.90 in 10.0 mi Calm Calm - N/A   Clear
12:35 PM 64.4 °F - 37.4 °F 37% 29.88 in 10.0 mi Calm Calm - N/A   Clear
12:55 PM 66.2 °F - 35.6 °F 32% 29.88 in 10.0 mi Calm Calm - N/A   Clear
1:15 PM 66.2 °F - 35.6 °F 32% 29.87 in 10.0 mi ENE 3.5 mph - N/A   Clear
1:55 PM 71.6 °F - 35.6 °F 27% 29.86 in 10.0 mi Calm Calm - N/A   Clear
2:15 PM 71.6 °F - 33.8 °F 25% 29.84 in 10.0 mi Calm Calm - N/A   Clear
2:35 PM 71.6 °F - 33.8 °F 25% 29.84 in 10.0 mi Calm Calm - N/A   Clear
2:55 PM 73.4 °F - 33.8 °F 23% 29.84 in 10.0 mi NNW 6.9 mph - N/A   Clear
3:15 PM 73.4 °F - 33.8 °F 23% 29.83 in 10.0 mi NNW 5.8 mph - N/A   Clear
3:35 PM 73.4 °F - 32.0 °F 22% 29.82 in 10.0 mi WNW 3.5 mph - N/A   Clear
4:15 PM 73.4 °F - 33.8 °F 23% 29.82 in 10.0 mi NW 4.6 mph - N/A   Clear
4:55 PM 75.2 °F - 32.0 °F 21% 29.81 in 10.0 mi NNW 6.9 mph - N/A   Clear
5:15 PM 75.2 °F - 33.8 °F 22% 29.81 in 10.0 mi NNW 5.8 mph - N/A   Clear
5:55 PM 75.2 °F - 33.8 °F 22% 29.80 in 9.0 mi Calm Calm - N/A   Clear
6:15 PM 75.2 °F - 30.2 °F 19% 29.80 in 5.0 mi NNW 4.6 mph - N/A   Clear
6:35 PM 73.4 °F - 32.0 °F 22% 29.80 in 7.0 mi NNW 3.5 mph - N/A   Clear
6:55 PM 71.6 °F - 32.0 °F 23% 29.81 in 4.0 mi North 5.8 mph - N/A   Clear
7:15 PM 69.8 °F - 33.8 °F 27% 29.82 in 10.0 mi North 3.5 mph - N/A   Clear
8:15 PM 59.0 °F - 33.8 °F 39% 29.85 in 10.0 mi WNW 10.4 mph - N/A   Clear
8:35 PM 60.8 °F - 35.6 °F 39% 29.86 in 10.0 mi WNW 8.1 mph - N/A   Clear
8:55 PM 59.0 °F - 35.6 °F 42% 29.87 in 10.0 mi WNW 6.9 mph - N/A   Clear
10:15 PM 60.8 °F - 32.0 °F 34% 29.91 in 10.0 mi NW 8.1 mph - N/A   Clear
10:35 PM 59.0 °F - 32.0 °F 36% 29.92 in 10.0 mi West 8.1 mph - N/A   Partly Cloudy
11:15 PM 62.6 °F - 33.8 °F 34% 29.93 in 10.0 mi West 12.7 mph - N/A   Partly Cloudy
11:55 PM 62.6 °F - 39.2 °F 42% 29.95 in 10.0 mi WNW 13.8 mph - N/A   Mostly Cloudy